EW3197 Weather Reports


Display with metric or nautical units.
time (UTC)temp
F
wind
direction
speed
MPH
gust
MPH
rain 1hr
in
rain 24hr
in
rain mn
in
humidity
%
barometer
mb
20260902200204 69 97 0.0 1.0 0.00 0.03 0.01 79 1019.3
20260902195704 69 95 0.0 2.0 0.00 0.03 0.01 78 1019.3
20260902195203 69 58 0.0 2.0 0.00 0.03 0.01 79 1019.4
20260902194704 69 64 1.0 3.0 0.00 0.03 0.01 78 1019.5
20260902194204 69 278 0.0 7.0 0.00 0.03 0.01 79 1019.5
20260902193704 69 257 0.0 2.0 0.00 0.03 0.01 79 1019.5
20260902193204 69 258 1.0 2.0 0.00 0.03 0.01 78 1019.5
20260902192704 69 257 1.0 3.0 0.00 0.03 0.01 78 1019.7
20260902192204 69 277 1.0 3.0 0.00 0.03 0.01 79 1019.7
20260902191704 68 301 0.0 1.0 0.00 0.03 0.01 80 1019.6
20260902191204 68 301 0.0 2.0 0.00 0.03 0.01 80 1019.6
20260902190704 68 301 0.0 1.0 0.00 0.04 0.01 80 1019.7
20260902190204 67 299 0.0 0.0 0.00 0.04 0.01 81 1019.9
20260902185704 67 299 0.0 0.0 0.00 0.05 0.01 81 1020.0
20260902185205 67 299 0.0 0.0 0.00 0.06 0.01 81 1020.3
20260902184704 67 299 0.0 0.0 0.00 0.09 0.01 81 1020.4
20260902184204 67 299 0.0 1.0 0.00 0.12 0.01 81 1020.3
20260902182704 68 299 0.0 2.0 0.00 0.14 0.01 78 1020.6
20260902182204 68 314 1.0 2.0 0.00 0.14 0.01 78 1020.6
20260902181204 68 314 1.0 2.0 0.00 0.14 0.01 77 1020.3
20260902180704 68 314 0.0 2.0 0.00 0.14 0.01 76 1020.0
20260902180205 68 314 1.0 2.0 0.00 0.15 0.01 78 1019.9
20260902175704 68 314 0.0 2.0 0.00 0.19 0.01 77 1019.9
20260902175204 68 314 1.0 2.0 0.00 0.22 0.01 75 1019.9
20260902174704 69 314 0.0 2.0 0.00 0.24 0.01 75 1019.9
20260902174204 69 315 1.0 2.0 0.00 0.24 0.01 76 1019.8
20260902173704 70 91 1.0 2.0 0.00 0.30 0.01 75 1019.8
20260902173204 70 91 1.0 2.0 0.00 0.44 0.01 77 1019.8
20260902172704 69 91 0.0 1.0 0.00 0.49 0.01 76 1020.1
20260902172203 69 91 0.0 1.0 0.00 0.53 0.01 76 1020.3
20260902171704 68 91 0.0 1.0 0.00 0.65 0.01 76 1020.5
20260902171204 68 91 0.0 2.0 0.00 0.70 0.01 76 1020.5
20260902170704 68 106 0.0 2.0 0.00 0.79 0.01 75 1020.7
20260902170204 68 106 0.0 2.0 0.00 0.83 0.01 75 1020.6
20260902165704 68 106 0.0 2.0 0.00 0.85 0.01 76 1020.7
20260902165204 68 131 0.0 1.0 0.00 0.85 0.01 77 1020.7
20260902163704 68 132 0.0 2.0 0.00 0.85 0.01 75 1020.7
20260902163204 68 132 0.0 1.0 0.00 0.85 0.01 75 1020.7
20260902162704 68 132 0.0 1.0 0.00 0.85 0.01 75 1020.7
20260902162204 68 132 0.0 1.0 0.00 0.85 0.01 76 1020.7
20260902161704 68 132 1.0 3.0 0.00 0.85 0.01 75 1020.7
20260902161204 68 142 0.0 1.0 0.00 0.85 0.01 76 1020.6
20260902160704 68 142 0.0 2.0 0.00 0.85 0.01 74 1020.7
20260902160204 68 235 1.0 2.0 0.00 0.85 0.01 75 1020.7
20260902155204 68 236 1.0 2.0 0.00 0.85 0.01 76 1020.6
20260902154705 68 69 1.0 3.0 0.00 0.85 0.01 77 1020.5
20260902154204 68 69 0.0 1.0 0.00 0.85 0.01 77 1020.5
20260902153704 68 68 0.0 2.0 0.00 0.85 0.01 77 1020.4
20260902153204 68 228 0.0 3.0 0.00 0.85 0.01 78 1020.4
20260902152704 67 62 1.0 1.0 0.00 0.85 0.01 78 1020.5
20260902152204 67 62 0.0 2.0 0.00 0.85 0.01 78 1020.6
20260902151704 67 62 0.0 2.0 0.00 0.85 0.01 78 1020.7
20260902151204 67 63 0.0 1.0 0.00 0.85 0.01 79 1020.7
20260902150704 67 62 0.0 1.0 0.00 0.85 0.01 77 1020.8
20260902150204 67 60 0.0 1.0 0.00 0.85 0.01 79 1021.0
20260902145704 67 60 1.0 3.0 0.00 0.85 0.01 80 1021.2
20260902145204 67 59 0.0 2.0 0.00 0.85 0.01 80 1021.2
20260902144704 67 60 0.0 1.0 0.00 0.85 0.01 80 1021.3
20260902143704 67 45 1.0 3.0 0.00 0.85 0.01 81 1021.4
20260902143204 66 88 0.0 3.0 0.00 0.85 0.01 80 1021.2
20260902142705 66 103 1.0 3.0 0.00 0.85 0.01 81 1021.0
20260902142204 66 258 1.0 2.0 0.00 0.85 0.01 82 1021.0
20260902141704 66 257 0.0 2.0 0.00 0.85 0.01 82 1021.0
20260902140704 66 257 1.0 2.0 0.00 0.85 0.01 82 1021.1
20260902135704 65 257 0.0 2.0 0.00 0.86 0.01 84 1021.1
20260902135204 65 257 1.0 2.0 0.00 0.86 0.01 83 1021.1
20260902134704 65 257 0.0 1.0 0.00 0.87 0.01 83 1021.0
20260902134204 65 257 1.0 3.0 0.00 0.87 0.01 83 1021.1
20260902133704 65 258 0.0 3.0 0.00 0.88 0.01 83 1021.0
20260902133203 65 191 0.0 2.0 0.00 0.88 0.01 84 1020.9
20260902132705 65 99 1.0 3.0 0.00 0.88 0.01 85 1020.9
20260902132204 64 243 0.0 1.0 0.00 0.88 0.01 86 1020.9
20260902131704 64 243 1.0 3.0 0.00 0.88 0.01 86 1020.8
20260902131203 64 243 0.0 2.0 0.00 0.88 0.01 86 1020.8
20260902130704 64 244 0.0 1.0 0.00 0.88 0.01 87 1020.6
20260902130204 63 244 0.0 1.0 0.00 0.88 0.01 88 1020.7
20260902125704 63 244 0.0 1.0 0.00 0.88 0.01 87 1020.7
20260902125204 63 244 0.0 5.0 0.00 0.88 0.01 88 1020.8
20260902124704 63 97 0.0 0.0 0.00 0.89 0.01 89 1020.9
20260902124204 62 97 0.0 2.0 0.00 0.91 0.01 89 1020.8
20260902123704 62 351 1.0 3.0 0.00 0.93 0.01 89 1020.8
20260902122704 62 14 2.0 3.0 0.00 0.96 0.01 90 1020.7
20260902122204 62 187 1.0 2.0 0.00 0.96 0.01 90 1020.6
20260902121706 62 207 1.0 3.0 0.00 0.96 0.01 90 1020.5
20260902121204 62 183 0.0 1.0 0.00 0.96 0.01 90 1020.4
20260902120706 62 183 0.0 2.0 0.00 0.97 0.01 90 1020.3
20260902120204 62 193 1.0 3.0 0.00 0.97 0.01 91 1020.4
20260902115704 62 116 0.0 0.0 0.00 0.97 0.01 91 1020.3
20260902115204 62 116 0.0 0.0 0.00 0.97 0.01 91 1020.4
20260902114703 62 116 0.0 0.0 0.00 0.97 0.01 91 1020.4
20260902113704 62 116 0.0 0.0 0.00 0.97 0.01 91 1020.5
20260902113204 62 116 0.0 0.0 0.00 0.97 0.01 91 1020.6
20260902112704 62 116 0.0 0.0 0.00 0.97 0.01 91 1020.7
20260902112205 62 116 0.0 0.0 0.00 0.97 0.01 91 1020.8
20260902111704 62 116 0.0 0.0 0.00 0.98 0.01 91 1020.9
20260902111204 62 116 0.0 0.0 0.00 0.98 0.01 91 1020.9
20260902110704 61 116 0.0 0.0 0.00 0.98 0.01 91 1021.0
20260902110204 61 116 0.0 0.0 0.00 0.99 0.01 91 1020.9
20260902105704 61 116 0.0 0.0 0.00 1.00 0.01 91 1020.8
20260902105204 62 116 0.0 0.0 0.00 1.00 0.01 91 1020.8
20260902104705 62 116 0.0 0.0 0.00 1.08 0.01 91 1020.7
20260902104205 62 116 0.0 0.0 0.00 1.10 0.01 91 1020.7
20260902103704 62 116 0.0 0.0 0.00 1.12 0.01 91 1020.6
20260902103205 62 116 0.0 0.0 0.00 1.12 0.01 91 1020.5
20260902102704 62 116 0.0 0.0 0.00 1.13 0.01 91 1020.5
20260902101704 62 116 0.0 0.0 0.00 1.14 0.01 91 1020.4
20260902101204 62 116 0.0 0.0 0.00 1.14 0.01 91 1020.3
20260902100704 62 116 0.0 0.0 0.00 1.16 0.01 91 1020.2
20260902100204 62 116 0.0 0.0 0.00 1.17 0.01 91 1020.2
20260902095704 62 116 0.0 0.0 0.00 1.18 0.01 91 1020.1
20260902095204 62 116 0.0 0.0 0.00 1.20 0.01 91 1020.0
20260902094204 62 116 0.0 0.0 0.00 1.21 0.01 91 1020.0
20260902093704 62 116 0.0 0.0 0.00 1.22 0.01 91 1019.9
20260902093204 62 116 0.0 0.0 0.00 1.22 0.01 91 1019.9
20260902092704 62 116 0.0 0.0 0.00 1.22 0.01 91 1019.8
20260902092204 62 116 0.0 0.0 0.00 1.23 0.01 91 1019.7
20260902091705 62 116 0.0 0.0 0.00 1.24 0.01 91 1019.6
20260902091204 62 116 0.0 0.0 0.00 1.24 0.01 91 1019.5
20260902090705 62 116 0.0 0.0 0.00 1.24 0.01 91 1019.4
20260902090206 62 116 0.0 0.0 0.00 1.24 0.01 91 1019.4
20260902085204 62 116 0.0 0.0 0.00 1.24 0.01 91 1019.4
20260902084704 62 116 0.0 0.0 0.00 1.24 0.01 91 1019.4
20260902083704 62 116 0.0 0.0 0.00 1.24 0.01 91 1019.4
20260902083204 62 116 0.0 0.0 0.00 1.24 0.01 91 1019.4
20260902082204 62 116 0.0 0.0 0.00 1.24 0.01 91 1019.3
20260902081205 63 116 0.0 0.0 0.00 1.24 0.01 91 1019.4
20260902080704 62 116 0.0 0.0 0.00 1.24 0.01 91 1019.4
20260902075704 63 116 0.0 0.0 0.00 1.25 0.01 91 1019.3
20260902074704 63 115 0.0 0.0 0.00 1.25 0.01 91 1019.1
20260902074204 63 115 0.0 0.0 0.00 1.25 0.01 91 1019.0
20260902073705 63 115 0.0 0.0 0.01 1.25 0.01 91 1019.2
20260902072704 63 115 0.0 0.0 0.01 1.25 0.01 91 1019.3
20260902072204 63 115 0.0 0.0 0.01 1.25 0.01 91 1019.4
20260902071705 63 115 0.0 0.0 0.01 1.25 0.01 91 1019.4
20260902071204 63 115 0.0 0.0 0.01 1.25 0.01 91 1019.4
20260902070203 63 115 0.0 0.0 0.01 1.25 0.01 91 1019.5
20260902065704 63 115 0.0 0.0 0.01 1.25 0.01 91 1019.5
20260902065204 63 115 0.0 0.0 0.01 1.25 0.01 91 1019.6
20260902064704 63 115 0.0 0.0 0.01 1.25 0.01 91 1019.7
20260902063704 63 115 0.0 0.0 0.00 1.24 0.00 90 1019.7
20260902063203 63 115 0.0 0.0 0.00 1.24 0.00 90 1019.7
20260902062704 63 115 0.0 0.0 0.00 1.24 0.00 90 1019.6
20260902062204 63 115 0.0 0.0 0.00 1.24 0.00 90 1019.6
20260902061704 63 115 0.0 0.0 0.00 1.24 0.00 90 1019.6
20260902061204 63 115 0.0 0.0 0.00 1.24 0.00 90 1019.6
20260902060204 63 115 0.0 0.0 0.00 1.24 0.00 90 1019.5
20260902055703 63 115 0.0 0.0 0.00 1.24 0.00 90 1019.5
20260902055205 63 115 0.0 0.0 0.00 1.24 0.00 90 1019.4
20260902054704 62 115 0.0 0.0 0.00 1.24 0.00 90 1019.4
20260902054204 63 115 0.0 0.0 0.00 1.24 0.00 90 1019.4
20260902053704 62 115 0.0 2.0 0.00 1.24 0.00 90 1019.3
20260902053204 63 114 0.0 1.0 0.00 1.24 0.00 90 1019.1
20260902051704 63 113 0.0 0.0 0.00 1.24 0.00 90 1018.9
20260902050704 63 113 0.0 0.0 0.00 1.24 0.00 90 1018.9
20260902050205 62 113 0.0 0.0 0.00 1.24 0.00 90 1018.9
20260902045704 62 113 0.0 0.0 0.00 1.24 0.00 90 1018.9
20260902045204 62 113 0.0 0.0 0.00 1.24 0.00 90 1018.8
20260902044704 62 113 0.0 0.0 0.00 1.24 0.00 90 1018.9
20260902044204 63 113 0.0 0.0 0.00 1.24 0.00 90 1019.0
20260902043704 62 113 0.0 0.0 0.00 1.24 0.00 90 1019.0
20260902042704 62 113 0.0 0.0 0.00 1.24 0.00 90 1018.8
20260902042204 62 113 0.0 0.0 0.00 1.24 0.00 90 1018.9
20260902041704 62 113 0.0 0.0 0.00 1.24 0.00 90 1018.9
20260902041204 62 113 0.0 0.0 0.00 1.24 0.00 91 1018.8
20260902040704 62 113 0.0 1.0 0.00 1.24 0.00 90 1018.6
20260902034704 62 113 0.0 1.0 0.00 1.24 1.24 90 1018.4
20260902034204 62 113 0.0 2.0 0.00 1.24 1.24 90 1018.4
20260902033203 62 112 0.0 0.0 0.00 1.24 1.24 91 1018.2
20260902032704 62 112 0.0 0.0 0.00 1.24 1.24 91 1018.2
20260902032203 62 112 0.0 0.0 0.00 1.24 1.24 90 1018.4
20260902031204 62 112 0.0 1.0 0.00 1.24 1.24 90 1018.3
20260902030704 62 112 0.0 1.0 0.00 1.24 1.24 90 1018.4
20260902030204 62 112 0.0 0.0 0.00 1.24 1.24 91 1018.2
20260902025204 62 112 0.0 3.0 0.00 1.24 1.24 90 1018.1
20260902024704 62 65 0.0 0.0 0.00 1.24 1.24 90 1018.1
20260902024204 62 65 0.0 1.0 0.00 1.24 1.24 90 1018.1
20260902023705 62 64 0.0 0.0 0.00 1.24 1.24 91 1018.2
20260902023204 62 64 0.0 0.0 0.00 1.24 1.24 90 1018.1
20260902022204 62 64 1.0 3.0 0.00 1.24 1.24 91 1018.1
20260902021704 62 106 0.0 0.0 0.00 1.24 1.24 91 1018.1
20260902021204 62 106 0.0 0.0 0.00 1.24 1.24 91 1018.2
20260902020704 62 106 0.0 0.0 0.00 1.24 1.24 91 1018.1
20260902020204 62 106 0.0 1.0 0.00 1.24 1.24 91 1018.2
20260902015704 62 104 0.0 1.0 0.00 1.24 1.24 91 1018.1
20260902015204 62 104 0.0 0.0 0.00 1.24 1.24 91 1018.2
20260902014704 62 104 0.0 0.0 0.00 1.24 1.24 91 1018.2
20260902014204 62 104 0.0 1.0 0.00 1.24 1.24 91 1018.2
20260902013205 63 105 0.0 2.0 0.00 1.24 1.24 91 1017.9
20260902012704 62 105 1.0 2.0 0.00 1.24 1.24 91 1017.9
20260902012204 62 105 0.0 1.0 0.00 1.24 1.24 91 1017.9
20260902011704 63 105 0.0 0.0 0.00 1.24 1.24 91 1017.9
20260902010205 63 105 0.0 0.0 0.00 1.24 1.24 91 1017.7
20260902005704 63 105 0.0 0.0 0.00 1.24 1.24 91 1017.5
20260902004705 63 105 0.0 0.0 0.00 1.24 1.24 91 1017.4
20260902003205 63 99 0.0 1.0 0.00 1.24 1.24 91 1017.1
20260902001704 63 106 0.0 1.0 0.00 1.25 1.24 91 1016.9
20260902001204 63 106 0.0 3.0 0.00 1.25 1.24 91 1016.8
20260902000704 63 245 0.0 1.0 0.00 1.25 1.24 91 1016.8
20260902000204 64 245 0.0 2.0 0.00 1.25 1.24 91 1016.7
20260901235704 64 245 0.0 3.0 0.00 1.25 1.24 91 1016.7
20260901234704 64 118 0.0 1.0 0.00 1.25 1.24 91 1016.7
20260901234204 64 118 1.0 3.0 0.00 1.25 1.24 91 1016.8
20260901233704 64 203 1.0 3.0 0.00 1.25 1.24 91 1016.8
20260901233204 64 128 0.0 1.0 0.00 1.25 1.24 91 1016.7
20260901232704 64 127 0.0 1.0 0.00 1.25 1.24 91 1016.4
20260901231705 64 126 0.0 1.0 0.00 1.25 1.24 91 1016.3
20260901231205 65 127 0.0 2.0 0.00 1.25 1.24 91 1016.5
20260901230704 65 128 0.0 0.0 0.00 1.25 1.24 91 1016.6
20260901230205 65 128 0.0 1.0 0.00 1.25 1.24 91 1016.6
20260901225704 65 128 0.0 1.0 0.00 1.25 1.24 91 1016.6
20260901225204 66 128 1.0 2.0 0.00 1.25 1.24 91 1016.5
20260901224704 66 128 1.0 3.0 0.00 1.25 1.24 91 1016.4
20260901224204 66 99 0.0 1.0 0.00 1.25 1.24 91 1016.3
20260901223704 66 99 0.0 2.0 0.00 1.25 1.24 91 1016.4
20260901223204 66 93 0.0 0.0 0.00 1.25 1.24 91 1016.4
20260901222703 66 93 0.0 1.0 0.00 1.25 1.24 91 1016.3
20260901222204 67 93 0.0 1.0 0.00 1.25 1.24 91 1016.3
20260901221704 67 93 0.0 2.0 0.00 1.25 1.24 91 1016.1
20260901220704 67 89 1.0 2.0 0.00 1.25 1.24 91 1015.8
20260901220205 67 59 0.0 1.0 0.00 1.25 1.24 91 1015.9
20260901215704 67 35 0.0 1.0 0.01 1.25 1.24 91 1015.9
20260901215204 68 33 0.0 0.0 0.01 1.25 1.24 91 1015.8
20260901214704 68 33 0.0 0.0 0.01 1.25 1.24 91 1015.8
20260901214204 68 33 0.0 0.0 0.02 1.25 1.24 91 1015.8
20260901213704 68 33 0.0 1.0 0.02 1.25 1.24 91 1015.7
20260901213204 68 25 0.0 1.0 0.02 1.25 1.24 91 1015.6
20260901212704 69 25 0.0 1.0 0.02 1.25 1.24 91 1015.6
20260901212204 69 25 0.0 1.0 0.02 1.25 1.24 91 1015.6
20260901211704 69 25 0.0 1.0 0.02 1.25 1.24 91 1015.6
20260901211204 69 25 0.0 0.0 0.02 1.25 1.24 91 1015.5
20260901210704 69 25 0.0 0.0 0.02 1.25 1.24 91 1015.5
20260901210205 69 25 0.0 1.0 0.02 1.25 1.24 91 1015.5
20260901205704 69 25 0.0 0.0 0.01 1.24 1.23 91 1015.4
20260901204705 70 25 0.0 0.0 0.01 1.24 1.23 91 1015.3
20260901204205 70 25 0.0 1.0 0.00 1.23 1.22 91 1015.2
20260901203204 70 25 1.0 3.0 0.00 1.23 1.22 91 1015.2
20260901202204 71 18 0.0 1.0 0.00 1.23 1.22 91 1015.1
20260901201204 70 18 0.0 0.0 0.00 1.23 1.22 91 1015.0